STARLINK-35555, 66425

Orbit data source: Space-Track

STARLINK-35555, 66425 is a payload satellite owned by SpaceX/Seattle (US) in LEO that was launched on Tue, 11 Nov 2025 UTC via an FALCON 9 launch vehicle from the Air Force Eastern Test Range (AFETR). Payload-class satellites include a variety of spacecraft equipped with specific instruments for various scientific and technological missions. These include communications satellites like Starlink; space stations such as the ISS; scientific satellites like the Hubble; Earth observation satellites from companies like Planet Labs, Umbra, and HawkEye 360; GPS; miniature CubeSats for education and research; and military/defense satellites.

Loading next visibility...
Identifier
66425, 2025-259D
Orbit
LEO
Country
Flag of USUS
Related business
Manufacturer
SpaceX/Seattle
Mission
Operational Commercial Communications
Bus & Motor
STARLINK V2MO, Unknown motor
Mass
575 kg wet, ~530 kg dry
Launch date (UTC)
2025-11-11 (7 months ago)
Launch vehicle
FALCON 9
Launch site
Air Force Eastern Test Range (AFETR)
Object type
Payload
Rocket body
Debris
Shape & HBR
Box + 2 Pan, 17.7 m
Radar Cross Section
36.964 m², Large (>1 m²)

Expand to show TLE details & history
Last TLE update: 14 hours ago

TLE from 14 hours ago
0 STARLINK-35555
1 66425U 25259D   26150.11485382  .00026009  00000-0  95072-3 0  9995
2 66425  42.9974 174.5530 0000753 229.7317 130.3468 15.27601689 31948
Epoch: 2026-05-30T02:45Z
TLE epoch observation values (Epoch: 2026-05-30T02:45:23.370Z)
Latitude
-0.00006°
Longitude
-114.42996°
Altitude
483.094 km
Speed
7.625 km/s
True Right ascension
11h 38m 12s
True Declination
0° 00' 00"
Sunlit
Object was in daylight at epoch
Visualization orbit readout
Latitude
Unknown
Longitude
Unknown
Altitude
Unknown
Speed
Unknown
Apparent Right ascension
Unknown
Apparent Declination
Unknown
Sunlit
N/A
Visualization observer readout
Local Sidereal Time
02:07:44
Azimuth
Unknown
Elevation
Unknown
Doppler factor
Unknown
Orbital elements
Apogee altitude
485.447 km
Perigee altitude
484.413 km
Semi-major axis
6,863.067 km
Eccentricity
0.00008
Inclination
42.9974°
RAAN
174.553°
Arg. of periapsis
229.7317°
True anomaly
130.35338°
Mean anomaly
130.3468°
Eccentric anomaly
130.35009°
Mean motion
3.81738 °/min
Orbital period
94.31 mins
BSTAR
0.00095072
Loading maneuver chart data...
Computing Atmospheric mass density...
Loading historical data...
Loading historical data...
Loading historical data...
Loading historical data...
Loading historical data...
Loading historical data...
Loading historical data...

Documentation

Showing up to 5 results
|